Home   Weather   Buchs   Past weeks

Flag for Switzerland Past Weather in Buchs, St. Gallen, Switzerland — Yesterday and Last 2 Weeks

Now
58 °F

Cool.


Feels Like: 58 °F
Forecast: 47 / 72 °F
Wind: 1 mph from North

Location: Vaduz

Current Time: Aug 20, 2017 at 2:38:58 am

Latest Report: Aug 20, 2017 at 1:00 am


Visibility: N/A

Pressure: 30.20 "Hg

Humidity: 94%

Dew Point: 56 °F

Location of BuchsLocation

Past Weather in Buchs — Graph

°F

Buchs Temperature Yesterday

Maximum temperature yesterday: 68 °F (at 4:00 pm)
Minimum temperature yesterday: 59 °F (at 11:00 pm)
Average temperature yesterday: 63 °F

High & Low Weather Summary for the Past Weeks

 TemperatureHumidityPressure
High86 °F (Aug 18, 4:00 pm)96% (Aug 7, 5:00 am)30.24 "Hg (Aug 7, 5:00 am)
Low52 °F (Aug 11, 6:00 am)33% (Aug 18, 7:00 pm)29.75 "Hg (Aug 18, 7:00 pm)
Average66 °F76%30.07 "Hg
* Reported Aug 5 1:00 am — Aug 20 1:00 am, Buchs. Weather by CustomWeather, © 2017

Note: Actual official high and low records may vary slightly from our data, if they occured in-between our weather recording intervals... More about our weather records

Advertising

Buchs Weather History for the Previous 24 Hours

Scroll right to see more
 ConditionsComfort  
Time TempWeatherWind HumidityBarometerVisibility
1:00 am
Sun, Aug 20
58 °FCool.1 mph94%30.20 "HgN/A
12:00 am59 °FCool.2 mph92%30.20 "HgN/A
11:00 pm
Sat, Aug 19
59 °FCool.1 mph92%30.19 "HgN/A
10:00 pm60 °FCool.1 mph90%30.16 "HgN/A
9:00 pm61 °FCool.1 mph89%30.15 "HgN/A
8:00 pm62 °FRain. Low clouds.5 mph86%30.12 "Hg5 mi
7:00 pm65 °FMild.3 mph71%30.09 "HgN/A
6:00 pm67 °FMild.5 mph69%30.09 "HgN/A
5:00 pm67 °FPartly sunny.5 mph70%30.09 "Hg7 mi
4:00 pm68 °FMild.7 mph70%30.08 "HgN/A
3:00 pm67 °FMild.2 mph71%30.11 "HgN/A
2:00 pm65 °FFog.3 mph71%30.11 "Hg9 mi
1:00 pm65 °FMild.5 mph76%30.12 "HgN/A
12:00 pm63 °FMild.3 mph84%30.13 "HgN/A
11:00 am62 °FFog.5 mph87%30.13 "Hg6 mi
10:00 am62 °FCool.3 mph89%30.13 "HgN/A
9:00 am61 °FCool.3 mph88%30.12 "HgN/A
8:00 am60 °FLow clouds.1 mph93%30.11 "Hg5 mi
7:00 am60 °FCool.1 mph93%30.10 "HgN/A
6:00 am61 °FCool.2 mph94%30.09 "HgN/A
5:00 am62 °FRain. Low clouds.2 mph93%30.07 "Hg5 mi
4:00 am64 °FMild.3 mph93%30.06 "HgN/A
3:00 am64 °FMild.No wind96%30.07 "HgN/A
2:00 am64 °FLight rain. Low clouds.2 mph95%30.06 "Hg3 mi
Weather by CustomWeather, © 2017

See weather overviewHow to use our weather pages